Regional Weather Roundup
Issued by NWS

Home | Current Version | Previous Version | Graphics & Text | Print | Product List | Glossary On
Versions: 1 2 3 4 5 6 7 8 9 10 11 12 13 14 15 16 17 18 19 20 21 22 23 24 25 26 27 28 29 30 31 32 33 34 35 36 37 38 39 40 41 42 43 44 45 46 47 48 49 50
266
ASUS43 KLSX 111807
RWRMO

WEATHER SUMMARY FOR MISSOURI
NATIONAL WEATHER SERVICE SPRINGFIELD MO
1200 PM CST MON DEC 11 2017

NOTE: "FAIR" INDICATES FEW OR NO CLOUDS BELOW 12,000 FEET WITH NO
       SIGNIFICANT WEATHER AND/OR OBSTRUCTIONS TO VISIBILITY.
       CURRENT SKY AND/OR WEATHER CONDITIONS ARE NOT AVAILABLE FOR
       CHILLICOTHE AND FARMINGTON.

MOZ001>031-035>038-043-044-053-054-111900-
...NORTHERN AND WESTERN MISSOURI...

CITY           SKY/WX    TMP DP  RH WIND       PRES   REMARKS
KANSAS CTY INT MOSUNNY   56  24  29 NW23G36   29.95F
6HR MIN TEMP:  36; 6HR MAX TEMP:  56;

KANSAS C DTWN  MOSUNNY   57  23  26 NW23G38   29.94F
6HR MIN TEMP:  33; 6HR MAX TEMP:  57;

LEE`S SUMMIT   CLOUDY    53  21  28 NW21G31   29.96F
6HR MIN TEMP:  40; 6HR MAX TEMP:  54;

ST JOSEPH      SUNNY     54  27  35 NW33G40   29.96S
6HR MIN TEMP:  28; 6HR MAX TEMP:  55;

CHILLICOTHE      N/A     53  27  36 NW22G37   29.89F
6HR MIN TEMP:  36; 6HR MAX TEMP:  54;

KIRKSVILLE     SUNNY     50  29  44 NW30G40   29.80F
6HR MIN TEMP:  32; 6HR MAX TEMP:  51;


$$
MOZ066>068-077>081-088>096-101>105-111900-
...SOUTHWEST MISSOURI...

CITY           SKY/WX    TMP DP  RH WIND       PRES   REMARKS
SPRINGFIELD    SUNNY     61  18  18 W16       29.98F
6HR MIN TEMP:  32; 6HR MAX TEMP:  61;

JOPLIN         CLOUDY    58  21  24 W16       30.04F
6HR MIN TEMP:  39; 6HR MAX TEMP:  58;

BRANSON        MOSUNNY   64  14  14 W17G26    30.00F

$$
MOZ032>034-039>042-045>050-055>058-069>072-111900-
...CENTRAL MISSOURI...

CITY           SKY/WX    TMP DP  RH WIND       PRES   REMARKS
COLUMBIA       CLOUDY    51  20  29 W21G33    29.87S
6HR MIN TEMP:  30; 6HR MAX TEMP:  54;

JEFFERSON CITY CLOUDY    53  20  27 W24G36    29.88S
6HR MIN TEMP:  29; 6HR MAX TEMP:  56;

ROLLA          SUNNY     59  19  21 W20G31    29.86F
6HR MIN TEMP:  36; 6HR MAX TEMP:  61;

SEDALIA        CLOUDY    51  24  34 NW16G28   29.93F
6HR MIN TEMP:  39; 6HR MAX TEMP:  53;

WHITEMAN AFB   PTSUNNY   51  19  29 NW16G23   29.89F
WARRENSBURG    CLOUDY    52  19  28 NW15G28   29.95F
OSAGE BEACH    MOSUNNY   57  21  24 W20G26    29.92S

$$
MOZ051-052-059>065-111900-
...EAST CENTRAL MISSOURI...

CITY           SKY/WX    TMP DP  RH WIND       PRES   REMARKS
ST LOUIS INTL  PTSUNNY   57  23  26 W20G28    29.78F
6HR MIN TEMP:  33; 6HR MAX TEMP:  58;

SPIRIT OF STL  PTSUNNY   58  23  26 W14G26    29.78F
6HR MIN TEMP:  25; 6HR MAX TEMP:  58;

ST CHARLES     CLOUDY    56  21  25 W20G30    29.77F
6HR MIN TEMP:  25; 6HR MAX TEMP:  56;


$$
MOZ072>076-082>087-097>100-106>115-111900-
...SOUTH CENTRAL AND SOUTHEAST MISSOURI...

CITY           SKY/WX    TMP DP  RH WIND       PRES   REMARKS
CAPE GIRARDEAU SUNNY     55  31  39 SW16G23   29.91F
6HR MIN TEMP:  23; 6HR MAX TEMP:  55;

FARMINGTON     SUNNY     58  26  29 S15       29.83F
6HR MIN TEMP:  27; 6HR MAX TEMP:  58;

POPLAR BLUFF   SUNNY     59  31  34 SW20G30   29.92F
6HR MIN TEMP:  27; 6HR MAX TEMP:  59;

WEST PLAINS    SUNNY     62  21  20 W14G24    29.94F
6HR MIN TEMP:  33; 6HR MAX TEMP:  62;


$$



USA.gov is the U.S. government's official web portal to all federal, state and local government web resources and services.